Simultaneous Nadir Overpasses (SNOs) Predictions

Prediction of SNOs between FY3D and METOP-C Satellite Orbit:

Table of predicted SNOs for the next 14.0 days since TLE Epoch: 6/12/2020
Index Date (FY3D) Time (FY3D) Lat,Lon (FY3D) SZA (FY3D ) Date (METOP-C) Time (METOP-C) Lat,Lon (METOP-C) SZA (METOP-C ) Distance(km) Time Diff (sec)
1 06/25/2020 12:32:22 -73.77, 162.82 129.41 06/25/2020 12:33:28 -73.70, 165.88 129.63 95.47 66
2 06/25/2020 13:23:03 73.57, -29.39 50.37 06/25/2020 13:24:11 73.50, -27.25 50.19 67.93 68
3 06/25/2020 14:13:46 -73.52, 138.04 129.69 06/25/2020 14:14:55 -73.43, 139.92 129.87 60.14 69
4 06/25/2020 15:04:26 73.26, -54.07 50.04 06/25/2020 15:05:38 73.23, -53.20 49.95 28.33 72
5 06/25/2020 15:55:09 -73.21, 113.35 130.02 06/25/2020 15:56:22 -73.16, 113.98 130.12 20.94 73
6 06/25/2020 16:45:51 73.06, -78.99 49.82 06/25/2020 16:47:03 73.06, -78.91 49.80 2.73 72
7 06/25/2020 17:36:35 -73.06, 88.32 130.18 06/25/2020 17:37:46 -73.04, 88.37 130.22 2.97 71
8 06/25/2020 18:27:20 73.06,-104.36 49.82 06/25/2020 18:28:25 73.04,-104.29 49.78 2.90 65
9 06/25/2020 19:18:03 -73.01, 63.06 130.24 06/25/2020 19:19:08 -73.02, 62.99 130.24 2.67 65
10 06/25/2020 20:08:48 73.00,-129.61 49.76 06/25/2020 20:09:47 73.02,-129.68 49.76 2.65 59
11 06/25/2020 20:59:32 -73.00, 37.70 130.24 06/25/2020 21:00:30 -73.00, 37.60 130.25 3.09 58
12 06/25/2020 21:50:17 73.00,-154.98 49.76 06/25/2020 21:51:09 73.00,-155.06 49.75 2.82 52
13 06/25/2020 22:41:01 -73.00, 12.33 130.24 06/25/2020 22:41:51 -73.03, 12.33 130.22 2.93 50
14 06/25/2020 23:31:46 73.00, 179.66 49.76 06/25/2020 23:32:30 73.02, 179.66 49.78 3.21 44
15 06/26/2020 00:22:30 -73.00, -13.03 130.24 06/26/2020 00:23:13 -73.01, -13.06 130.24 1.27 43




NCC Satellite Simultaneous Nadir Overpasses (SNOs) Prediction Service
